SCP
-0 -0 -0 -0 0 0 0 0 0 0 0 0 0 0 0 0 0 0 0 0 0 0
-0 -0 -0 -0 -0 0 0 0 0 0 0 0 0 0 0 0 0 0 0 0 0 0
0 -0 -0 -0 -0 0 0 0 0 0 0 0 0 0 0 0 0 0 0 0 0 0
0 0 0 -0 0 0 0 0 0 0 0 0 0 0 0 0 0 0 0 0 0 0
-0 -0 -0 0 0 0 -0 -0 -0 0 0 0 0 0 0 0 0 0 0 0 0 0
-0 -0 -0 -0 0 0 0 0 0 -0 -0 -0 0 0 0 0 0 0 0 0 0 0
0 -0 -0 -0 -0 -0 -0 0 0 0 0 0 0 0 0 0 0 0 0 0 0 0
0 0 0 0 -0 0 0 0 0 0 0 0 0 0 0 0 0 0 0 0 0 0
0 0 0 0 0 0 0 0 0 0 0 0 0 0 0 0 0 0 0 0 0 0
0 0 0 0 0 0 0 0 0 0 0 0 0 0 0 0 0 0 0 0 0 0
0 0 0 0 0 0 0 0 0 0 0 0 0 0 0 0 0 0 0 0 0 0
0 0 0 0 0 0 0 0 0 0 0 0 0 0 0 0 0 0 0 0 0 0
0 0 0 0 0 0 0 0 0 0 0 0 0 0 0 0 0 0 0 0 0 0
0 0 0 0 0 0 0 0 0 0 0 0 0 0 0 0 0 0 0 0 0 0
Wind_Speed_500mb
32 27 26 24 43 49 63 70 68 60 54 59 68 72 69 55 71 80 67 81 79 76
33 30 29 24 24 57 47 69 79 64 67 65 66 62 88 77 69 76 80 86 77 74
34 29 27 26 26 35 52 59 74 69 75 74 67 61 76 91 83 82 91 87 84 77
33 29 23 24 26 25 34 43 60 65 71 72 66 67 64 79 94 81 89 85 86 87
27 28 26 25 24 24 26 31 36 42 52 54 61 63 57 57 91 90 82 76 84 83
31 28 27 27 27 26 24 26 31 36 40 43 39 44 51 57 56 68 77 73 75 74
32 30 28 27 27 26 24 23 24 28 31 33 35 35 40 54 54 57 61 68 74 77
25 26 26 24 27 27 27 25 23 23 24 26 30 33 38 45 54 60 67 72 76 79
25 27 28 26 24 23 24 25 26 27 26 25 29 33 36 40 46 52 57 63 65 68
22 24 26 25 25 24 24 25 26 28 29 28 39 41 43 44 47 49 50 52 54 58
23 24 23 24 25 27 28 30 31 33 36 44 49 51 49 47 47 49 50 62 66 68
19 18 18 19 19 22 24 26 29 34 36 38 44 50 50 50 47 49 54 59 66 70
18 16 13 11 11 13 16 17 18 20 24 29 32 40 47 50 48 46 49 53 58 64
28 25 23 19 18 15 13 14 15 10 6 4 9 13 18 18 17 23 29 30 31 31
Wind_Direction_500mb
193 200 207 211 203 200 189 186 188 200 194 195 196 198 202 217 220 217 221 230 225 234
187 192 195 202 213 197 194 198 204 194 205 213 217 220 205 201 215 220 216 231 229 234
186 189 188 191 193 198 208 197 209 203 207 212 215 218 214 205 208 216 220 235 233 239
183 175 178 176 186 193 203 211 202 210 212 213 216 221 222 216 209 217 223 230 236 234
190 180 180 172 168 178 191 201 212 214 214 221 222 221 226 220 218 222 227 236 242 244
187 185 184 183 183 183 190 195 203 210 216 222 226 229 223 223 225 225 231 243 246 249
188 186 189 187 194 197 198 200 200 206 211 217 220 225 227 226 226 233 238 242 250 253
182 183 185 189 196 201 206 206 209 211 210 215 223 229 230 232 237 243 248 251 254 257
193 197 205 210 212 210 213 216 219 226 233 236 241 245 245 245 246 249 251 255 259 261
190 193 202 207 211 220 228 234 236 240 243 246 246 245 244 243 248 254 259 265 269 271
188 194 203 210 213 216 220 225 227 234 239 246 248 249 249 251 256 262 266 263 266 269
152 169 186 200 208 217 219 224 231 236 240 241 249 255 256 253 250 252 256 261 264 266
130 136 144 152 168 182 202 219 213 221 234 241 246 256 260 262 263 261 256 255 259 263
103 107 110 113 118 123 126 139 150 161 166 232 280 289 299 303 283 260 253 253 261 272
Wind_Speed_850mb
32 27 26 24 43 49 63 70 68 60 54 59 68 72 69 55 71 80 67 81 79 76
33 30 29 24 24 57 47 69 79 64 67 65 66 62 88 77 69 76 80 86 77 74
34 29 27 26 26 35 52 59 74 69 75 74 67 61 76 91 83 82 91 87 84 77
33 29 23 24 26 25 34 43 60 65 71 72 66 67 64 79 94 81 89 85 86 87
27 28 26 25 24 24 26 31 36 42 52 54 61 63 57 57 91 90 82 76 84 83
31 28 27 27 27 26 24 26 31 36 40 43 39 44 51 57 56 68 77 73 75 74
32 30 28 27 27 26 24 23 24 28 31 33 35 35 40 54 54 57 61 68 74 77
25 26 26 24 27 27 27 25 23 23 24 26 30 33 38 45 54 60 67 72 76 79
25 27 28 26 24 23 24 25 26 27 26 25 29 33 36 40 46 52 57 63 65 68
22 24 26 25 25 24 24 25 26 28 29 28 39 41 43 44 47 49 50 52 54 58
23 24 23 24 25 27 28 30 31 33 36 44 49 51 49 47 47 49 50 62 66 68
19 18 18 19 19 22 24 26 29 34 36 38 44 50 50 50 47 49 54 59 66 70
18 16 13 11 11 13 16 17 18 20 24 29 32 40 47 50 48 46 49 53 58 64
28 25 23 19 18 15 13 14 15 10 6 4 9 13 18 18 17 23 29 30 31 31
Wind_Direction_850mb
193 200 207 211 203 200 189 186 188 200 194 195 196 198 202 217 220 217 221 230 225 234
187 192 195 202 213 197 194 198 204 194 205 213 217 220 205 201 215 220 216 231 229 234
186 189 188 191 193 198 208 197 209 203 207 212 215 218 214 205 208 216 220 235 233 239
183 175 178 176 186 193 203 211 202 210 212 213 216 221 222 216 209 217 223 230 236 234
190 180 180 172 168 178 191 201 212 214 214 221 222 221 226 220 218 222 227 236 242 244
187 185 184 183 183 183 190 195 203 210 216 222 226 229 223 223 225 225 231 243 246 249
188 186 189 187 194 197 198 200 200 206 211 217 220 225 227 226 226 233 238 242 250 253
182 183 185 189 196 201 206 206 209 211 210 215 223 229 230 232 237 243 248 251 254 257
193 197 205 210 212 210 213 216 219 226 233 236 241 245 245 245 246 249 251 255 259 261
190 193 202 207 211 220 228 234 236 240 243 246 246 245 244 243 248 254 259 265 269 271
188 194 203 210 213 216 220 225 227 234 239 246 248 249 249 251 256 262 266 263 266 269
152 169 186 200 208 217 219 224 231 236 240 241 249 255 256 253 250 252 256 261 264 266
130 136 144 152 168 182 202 219 213 221 234 241 246 256 260 262 263 261 256 255 259 263
103 107 110 113 118 123 126 139 150 161 166 232 280 289 299 303 283 260 253 253 261 272